Theta_e
315 315 314 314 315 316 316 315 316 316 316 315 315 313 312 311 311 315 317 318 320 319 319 322 323 325 327 328 331 334 335 337 337 338 338 337 337 338 339 337 336 336 335 336 335 335 337 337 339 340 340 339 340 339 339 339 339 337 336 337 338 338 338 338 338 338 338 337 336 336 338 340 341 341 341 341 341 341 340 340 340 340 341 341 341 342
315 314 314 316 316 316 315 315 316 316 316 316 314 313 312 312 312 316 319 318 321 320 319 322 322 323 326 326 329 333 334 335 335 337 338 337 337 339 339 338 337 336 335 335 335 336 337 338 340 340 339 339 339 340 339 340 339 338 338 338 339 339 339 339 339 339 339 338 338 339 341 340 339 340 341 340 340 340 340 339 340 341 340 341 341 341
315 315 316 316 316 315 315 315 315 316 316 316 315 312 311 312 314 315 320 321 321 319 318 322 321 320 324 326 328 332 332 333 334 335 337 338 339 339 338 338 337 337 336 336 335 336 337 339 340 340 339 339 339 340 339 340 340 340 340 340 340 340 340 340 340 340 340 340 340 341 341 340 339 340 340 339 340 340 340 340 340 341 341 341 341 341
313 314 316 316 315 315 315 315 316 316 316 316 314 311 310 313 313 311 316 322 322 320 320 322 320 319 323 327 328 331 331 332 334 336 338 338 339 339 337 337 337 338 338 337 336 336 337 338 340 340 339 340 340 340 339 339 340 341 340 339 340 340 340 339 339 340 341 341 340 340 341 341 340 340 340 340 340 340 340 340 341 341 341 341 340 340
314 315 316 315 315 316 316 316 317 315 314 316 315 312 311 313 314 311 315 319 319 322 323 319 314 314 321 324 325 330 332 333 335 337 338 338 338 338 337 337 337 338 339 339 337 337 337 338 340 339 340 340 340 340 339 339 340 340 339 339 340 340 339 339 339 339 340 340 340 340 340 341 340 340 340 340 340 340 340 340 341 341 341 340 340 340
315 315 314 315 316 315 316 316 317 315 312 313 315 315 314 315 315 315 316 315 313 315 318 316 310 310 318 320 321 328 332 333 334 335 336 336 337 337 337 338 338 337 338 340 339 338 338 338 339 339 340 340 339 339 340 340 339 339 339 339 339 340 340 339 339 339 340 340 340 340 340 340 340 340 340 340 340 340 340 339 340 341 340 340 340 340
316 315 314 316 316 316 316 315 316 316 312 311 314 316 316 316 315 315 315 312 309 311 316 316 311 310 314 316 320 325 327 327 331 334 333 333 334 336 336 336 336 337 337 339 339 338 339 339 338 339 339 340 339 339 341 341 340 339 338 338 338 339 340 339 339 339 339 339 339 339 340 340 340 340 340 340 340 340 340 340 340 340 340 340 339 339
317 316 315 316 316 316 315 315 316 317 312 311 315 317 316 316 315 315 314 312 311 312 315 315 313 310 310 315 322 324 321 321 325 329 329 328 329 332 334 334 335 336 336 338 338 338 339 340 339 339 338 339 338 339 341 340 340 339 338 337 338 339 339 340 339 339 339 339 339 339 340 340 340 340 340 340 340 340 340 340 340 340 340 339 339 339
318 317 316 316 316 315 315 316 316 316 314 314 316 316 316 316 316 316 314 312 312 312 310 311 314 311 308 313 322 322 318 317 319 322 323 323 323 328 331 330 332 335 335 335 336 338 340 340 339 338 338 337 337 339 341 340 340 339 338 337 338 339 339 339 339 339 339 339 339 339 340 340 339 339 339 339 339 339 339 340 340 339 339 339 338 338
317 317 317 317 315 316 316 317 316 316 316 316 316 316 316 317 316 316 315 312 313 312 309 311 313 311 308 311 315 318 317 317 319 319 320 320 321 326 329 328 330 334 336 334 335 338 340 339 339 338 338 337 336 339 340 340 340 338 337 338 338 339 339 339 339 340 339 339 339 339 340 341 340 339 339 339 339 340 340 340 340 339 339 339 339 338
317 317 317 317 316 317 317 316 315 315 316 316 316 316 316 316 317 316 316 313 312 312 310 312 313 312 310 310 313 317 318 319 320 319 320 321 322 325 328 329 329 333 335 334 334 338 340 339 338 338 338 337 337 339 340 340 340 338 338 338 339 339 338 339 339 339 339 339 339 339 339 339 340 339 339 339 339 339 339 339 338 339 340 339 339 339
317 317 318 317 316 317 317 315 314 315 315 316 316 316 314 314 315 315 314 314 313 312 312 313 314 314 311 311 315 318 319 320 320 320 321 323 323 324 327 328 329 331 334 334 334 337 339 340 339 339 338 338 338 340 341 340 339 338 337 338 338 339 339 339 339 338 338 338 338 338 338 337 337 338 337 338 338 338 337 337 337 338 339 340 339 339
316 317 318 317 317 316 317 316 314 314 315 316 315 314 312 311 313 313 313 314 313 312 314 314 314 314 312 314 318 319 319 319 321 322 323 323 324 325 325 328 330 331 332 333 334 336 338 340 341 340 339 339 338 339 341 340 338 337 337 338 338 338 338 339 338 338 338 338 338 337 337 337 337 337 337 337 337 337 337 337 337 337 337 338 337 338
315 317 318 318 317 316 316 316 314 314 315 315 313 312 312 312 314 315 314 313 313 313 314 315 315 313 312 315 320 320 320 321 322 323 323 323 324 324 325 326 327 329 332 334 335 335 337 340 341 341 340 340 339 339 341 340 338 337 337 338 338 338 338 338 338 338 337 337 337 337 337 337 337 337 337 336 336 337 337 337 337 337 336 336 337 337
313 316 318 318 318 317 318 317 317 317 316 316 316 315 313 312 314 315 314 313 313 314 314 316 315 312 312 316 321 320 320 321 323 324 324 324 325 325 325 324 326 327 329 333 335 335 337 340 340 340 340 340 340 340 340 339 338 337 338 338 338 338 338 338 338 337 337 337 337 337 337 337 337 337 337 337 337 336 337 336 336 336 336 336 336 336
313 314 318 318 318 318 318 318 318 318 316 317 318 316 313 314 314 314 316 318 316 315 315 315 314 314 316 320 320 320 320 321 322 324 325 325 326 327 326 325 326 327 326 329 334 336 337 339 340 340 340 340 340 340 339 339 338 338 338 338 338 338 337 338 338 337 337 336 336 337 337 336 336 336 336 337 337 336 336 335 335 334 334 335 335 335
314 315 320 318 317 318 318 318 318 316 316 317 316 314 316 318 317 315 317 320 317 316 315 314 314 315 316 320 320 320 321 320 321 322 323 324 325 327 327 326 326 326 327 329 333 335 337 339 340 340 340 340 340 340 340 339 339 339 338 338 338 338 337 338 338 337 337 336 336 336 336 336 336 336 336 336 337 336 335 335 335 334 334 334 335 335
316 316 320 319 317 318 316 316 317 316 317 317 315 315 317 318 317 315 316 317 316 316 316 314 314 314 314 316 320 321 320 321 320 320 321 322 323 325 326 326 326 327 330 331 332 334 337 339 339 339 340 340 340 341 340 340 340 339 339 339 339 338 338 338 337 337 337 336 335 335 335 336 335 335 335 336 336 336 335 335 335 335 335 335 334 334
319 315 318 321 319 317 316 316 316 316 316 317 316 318 317 315 315 315 316 317 317 317 316 314 314 314 313 315 319 321 321 322 321 320 321 321 321 323 322 323 325 329 332 331 331 334 336 338 339 339 339 339 340 340 340 340 340 339 339 339 338 338 338 338 338 338 337 336 335 335 335 335 335 335 335 336 336 336 336 335 335 335 335 334 333 333
321 316 316 320 320 318 317 316 315 315 316 316 317 318 317 316 316 316 317 316 316 317 317 316 315 314 315 318 321 322 322 322 322 321 321 321 321 321 321 322 323 326 329 329 329 333 337 339 338 339 339 339 339 340 339 339 339 339 340 340 339 339 338 338 338 338 337 337 335 335 334 334 335 335 335 335 335 336 336 335 335 335 334 334 333 333
321 319 316 318 319 317 316 318 317 317 318 316 315 316 316 317 316 317 317 315 315 316 316 318 317 314 317 322 322 322 322 321 321 321 321 321 321 321 322 323 324 325 327 329 331 331 334 339 339 338 338 338 338 339 339 339 340 339 339 339 339 339 339 338 338 338 337 337 336 335 334 334 334 334 335 335 335 336 335 335 335 334 333 333 332 332
320 319 317 316 317 316 317 320 319 319 320 318 317 317 317 317 316 316 317 315 314 315 315 317 317 315 319 324 322 321 322 320 321 321 321 321 321 321 322 324 327 328 328 330 332 332 334 338 339 338 338 337 337 338 338 338 339 339 339 339 339 339 339 338 338 338 337 337 336 335 334 334 333 333 334 334 334 334 334 335 334 333 333 332 331 331
321 321 317 315 317 318 320 321 318 318 319 319 319 320 320 319 316 315 316 316 315 315 315 316 316 317 321 323 321 321 321 320 320 321 320 320 321 322 323 324 326 329 329 329 330 332 334 337 338 338 337 337 337 338 338 338 339 339 339 339 339 339 338 338 338 338 338 338 337 336 335 334 333 333 333 333 333 333 333 334 333 333 332 332 331 331
321 321 317 316 318 319 320 319 318 318 318 318 319 319 320 320 318 317 318 317 317 317 316 317 317 318 321 322 321 321 321 320 320 321 320 320 321 322 322 322 323 326 330 330 329 331 333 335 335 335 336 336 337 337 338 338 338 339 339 339 339 339 339 338 338 338 337 338 337 336 335 334 334 334 334 333 333 333 333 333 333 332 332 331 330 330
318 319 318 317 318 320 320 319 318 319 318 318 319 320 319 319 319 320 319 319 319 317 316 318 317 317 321 323 322 321 321 320 320 321 320 321 321 321 321 322 322 323 327 329 330 331 332 331 332 332 333 333 334 336 337 338 337 338 339 339 339 338 338 338 338 338 337 338 337 337 336 335 335 335 335 335 334 334 333 332 332 331 330 329 329 329
319 321 320 318 319 321 321 320 319 319 319 319 320 321 320 319 319 320 318 317 318 317 317 317 317 317 322 324 322 321 321 320 321 321 320 320 321 321 321 322 322 322 324 326 328 330 331 330 329 329 331 331 330 332 335 336 336 336 337 338 338 338 338 338 338 338 337 337 337 336 336 335 336 336 336 335 334 333 332 332 332 331 329 329 329 328
321 323 323 319 319 319 319 321 322 322 320 319 321 322 321 320 320 319 318 317 318 318 317 318 318 319 321 322 322 322 322 321 322 321 320 321 321 322 322 322 322 323 323 324 325 327 330 330 329 328 330 331 330 329 331 334 335 335 335 337 337 337 337 338 338 337 337 335 335 335 335 335 335 336 335 334 334 333 332 332 332 330 329 328 328 328
322 322 324 323 321 321 320 322 324 324 322 320 322 322 322 321 321 320 319 319 319 319 318 319 320 319 321 322 323 323 322 322 322 321 321 321 322 322 322 322 322 321 322 323 324 325 326 328 329 330 331 332 331 331 331 331 333 333 333 335 336 336 336 337 337 336 335 334 333 334 334 335 335 334 333 333 333 333 333 332 332 331 329 328 327 327
323 321 323 324 322 323 323 323 324 324 324 323 323 322 323 323 322 322 321 321 321 320 319 321 322 321 321 323 323 323 322 322 322 322 322 322 322 321 321 321 320 320 321 321 322 323 323 325 327 329 333 334 333 333 333 330 331 332 332 333 335 335 335 336 335 335 335 333 333 333 334 334 334 333 332 332 332 333 333 332 332 331 330 329 329 328
324 321 323 324 322 323 323 323 323 323 323 323 323 323 323 323 323 323 323 323 323 321 322 323 323 323 323 323 323 323 322 322 321 321 322 322 321 321 321 321 321 320 321 321 322 322 322 322 324 327 332 335 333 332 332 330 329 330 331 332 333 334 334 335 334 334 334 333 332 332 332 333 333 332 332 331 331 331 332 332 331 330 328 329 328 328
323 323 324 323 322 322 322 322 322 322 322 322 322 322 322 323 324 324 324 324 324 323 324 324 323 323 323 323 322 322 322 322 321 321 321 321 322 321 322 321 321 321 321 321 321 322 322 323 323 325 330 333 332 331 330 330 328 328 329 331 333 333 333 334 334 334 334 334 332 331 331 331 332 332 331 330 330 330 330 331 331 328 326 326 327 327
322 323 324 323 322 323 321 321 322 321 322 322 322 322 322 322 323 323 324 324 324 324 324 323 322 322 322 322 322 322 322 322 321 321 321 321 321 321 321 321 321 322 321 321 322 322 323 323 323 325 328 330 330 330 329 329 328 328 330 332 332 333 333 333 333 333 333 333 333 331 330 329 330 331 331 330 330 329 329 330 329 326 325 326 325 325
322 322 323 323 324 323 321 321 322 322 324 324 323 322 322 322 322 322 323 323 323 323 323 322 321 321 322 323 323 323 323 322 322 322 321 322 322 322 322 322 321 321 322 322 323 323 323 323 324 325 327 328 327 328 328 328 327 327 330 332 332 332 332 332 332 332 332 332 332 331 330 329 329 330 330 330 330 329 329 330 329 326 326 325 323 322
324 324 323 323 324 323 322 322 323 324 325 325 323 321 322 322 322 322 322 322 322 322 322 321 321 321 322 323 324 325 324 323 323 322 322 322 322 322 322 322 322 322 322 322 322 322 322 324 324 325 325 326 327 327 327 326 326 328 330 331 332 332 332 332 332 332 332 332 331 332 331 330 329 329 330 330 330 329 328 328 328 327 327 325 322 322
324 324 323 323 323 323 322 323 325 326 325 322 320 321 322 321 321 321 321 321 321 321 322 321 321 322 323 324 324 324 324 324 323 322 322 322 322 322 322 322 322 322 321 321 321 321 322 323 324 325 326 326 326 327 329 328 328 330 331 331 331 332 331 331 331 331 332 332 331 331 331 331 331 330 330 330 330 329 328 328 328 328 327 324 323 324
323 324 323 322 322 323 323 324 325 326 323 322 322 321 321 321 320 321 321 320 321 322 323 323 322 323 324 324 324 324 323 323 322 322 322 322 322 322 322 322 322 321 321 321 321 321 323 322 323 325 326 326 326 327 328 329 329 330 330 330 330 331 331 331 331 331 331 332 331 331 331 331 331 331 330 330 330 330 329 328 328 327 326 324 324 325
322 323 322 322 322 323 323 323 323 323 322 323 322 321 322 322 322 322 321 321 323 325 324 324 324 324 324 324 324 323 322 322 322 322 322 321 321 321 321 321 322 321 321 321 320 321 322 321 322 323 325 325 325 325 326 328 330 329 329 329 329 330 331 331 331 331 331 332 332 331 331 331 330 331 330 330 330 330 329 329 328 327 326 326 326 325
321 322 322 323 322 321 322 323 323 323 322 322 322 324 325 324 325 323 321 321 324 325 323 324 325 324 324 324 323 323 322 322 321 322 321 321 321 321 321 321 322 322 322 320 319 319 319 320 321 322 323 323 324 324 325 328 329 328 328 328 329 329 330 331 331 330 330 332 332 331 331 331 330 330 330 330 330 330 329 329 328 327 327 327 327 326
320 320 321 321 321 320 321 322 322 322 321 321 324 325 323 322 324 323 320 320 323 324 323 323 324 324 323 323 323 323 322 321 321 321 321 321 321 321 321 321 321 322 321 320 319 318 318 319 320 320 321 322 323 324 326 327 328 327 327 328 329 329 330 330 330 329 329 330 331 331 331 330 330 330 330 330 330 329 329 329 328 327 328 327 327 327
320 320 319 319 319 320 321 321 320 319 319 321 323 323 321 321 323 322 320 320 322 323 322 321 323 323 322 322 322 322 321 320 320 321 320 320 321 321 321 321 320 321 321 320 320 318 318 319 320 320 321 321 322 324 325 327 328 328 328 329 329 330 330 330 329 328 328 329 330 330 331 330 329 329 329 329 330 329 329 329 328 328 328 327 327 327
320 319 318 318 318 319 320 320 319 318 320 322 322 321 320 321 321 320 319 320 321 321 321 320 321 321 321 321 320 320 320 320 320 320 320 320 320 320 320 320 320 320 320 320 320 319 318 319 320 322 323 322 323 324 325 326 328 328 328 329 330 330 329 328 328 327 327 328 328 329 330 330 330 330 329 329 329 329 329 329 328 327 327 326 326 325
319 318 318 317 317 317 318 319 319 319 321 322 322 321 320 319 318 318 318 320 321 320 319 320 320 319 319 319 319 319 319 320 320 319 319 320 320 320 320 320 320 320 320 321 320 319 319 319 319 321 323 323 323 324 324 326 328 328 329 330 330 329 327 325 325 325 325 326 326 327 329 329 329 329 329 329 329 329 328 329 328 327 326 325 325 324
318 317 317 317 317 317 318 320 321 321 321 321 320 320 320 319 318 318 318 319 319 318 318 318 318 318 318 318 318 319 319 319 319 319 319 320 320 320 320 320 319 319 320 320 320 320 319 319 319 320 322 323 323 324 325 327 329 329 329 330 328 326 324 324 324 324 324 325 325 326 327 328 328 328 328 328 328 328 328 328 328 326 325 324 324 323
318 317 317 317 317 317 318 320 320 319 319 320 319 318 318 317 316 316 316 316 316 317 316 317 317 317 317 317 317 318 318 318 319 319 319 319 319 319 319 320 319 319 319 320 321 320 320 320 320 320 321 322 322 323 325 327 328 329 329 329 327 325 324 324 324 323 324 324 325 326 326 327 327 327 327 327 328 327 327 327 326 325 325 324 323 323
318 318 318 318 317 317 317 318 318 318 319 320 318 316 316 316 315 315 314 314 315 315 315 315 316 316 315 315 316 316 316 317 317 318 318 319 318 318 319 319 320 319 319 320 321 320 319 320 321 320 320 321 322 322 323 324 327 328 328 327 327 326 324 323 323 323 324 324 325 326 326 326 326 326 327 327 326 326 326 326 325 325 324 324 324 323
316 317 317 317 317 318 317 316 317 317 318 319 318 316 315 315 314 314 314 314 314 315 315 315 315 315 314 314 313 313 314 315 316 317 317 318 318 318 318 318 319 319 319 320 320 319 319 320 321 320 321 321 321 321 322 322 324 326 327 327 327 325 323 322 323 324 323 323 324 325 325 325 325 325 326 327 326 326 326 325 325 325 324 323 323 323
315 316 316 317 317 318 317 316 315 316 317 318 317 315 314 314 314 313 314 314 314 314 315 314 314 314 313 312 312 312 313 313 315 316 317 317 317 317 317 317 317 318 319 320 320 319 320 320 320 321 321 321 321 321 321 321 322 323 324 326 326 324 322 323 324 323 323 323 323 324 325 325 324 324 326 326 326 325 325 325 325 324 323 323 323 322
316 316 315 316 316 316 315 315 315 316 316 316 315 314 313 313 313 313 313 313 314 314 313 313 313 312 311 311 311 312 311 312 313 314 315 316 316 316 317 317 317 318 318 319 321 321 321 320 320 321 321 321 321 320 320 321 321 321 322 324 324 323 323 324 324 323 322 322 322 323 324 324 323 323 324 325 325 325 325 325 324 323 322 322 321 321
314 314 314 314 314 314 314 313 313 313 313 313 313 313 313 313 313 312 312 312 312 312 312 311 311 311 311 310 310 310 311 311 312 313 314 315 315 316 317 317 317 318 317 319 321 322 321 319 319 320 321 320 321 320 320 320 320 320 321 322 323 323 323 325 325 324 322 322 322 322 322 323 323 323 323 324 324 323 323 323 322 321 321 321 320 320
312 313 313 312 312 312 312 312 312 312 312 312 311 311 311 311 311 311 310 311 311 310 310 310 310 310 310 310 310 310 310 311 311 312 313 314 315 316 317 317 317 317 318 318 320 322 321 320 319 319 319 319 320 320 320 320 320 320 320 320 321 322 322 323 325 324 323 322 321 321 321 321 321 322 322 322 322 321 321 321 321 320 320 320 320 319
311 311 311 310 310 311 311 310 310 310 309 309 308 308 309 309 309 309 310 310 310 310 309 310 309 309 310 310 310 310 310 310 311 312 313 314 315 316 317 318 318 317 317 318 319 320 321 321 321 320 318 318 319 320 320 320 320 319 318 319 320 321 321 322 323 323 323 321 321 321 321 320 320 321 321 320 320 320 320 320 320 319 319 319 320 319
Wind_Speed
3 5 7 6 5 3 2 1 3 3 1 2 2 2 2 3 1 4 3 3 2 6 5 6 8 8 7 6 5 6 7 8 8 8 8 8 8 7 8 8 9 9 9 10 12 12 13 13 13 13 13 13 13 13 13 15 16 16 17 16 14 12 12 12 13 13 12 10 10 10 7 6 6 6 6 5 6 6 6 5 6 6 6 6 6 6
3 7 7 4 1 3 2 1 1 2 2 3 4 3 3 4 1 4 2 2 0 5 2 2 7 8 7 7 6 6 8 9 9 9 10 10 9 8 8 9 8 8 8 10 11 12 13 13 13 12 12 13 13 12 12 15 16 16 15 15 14 13 13 14 14 13 13 13 11 8 6 6 6 6 6 6 7 7 6 6 6 6 6 6 6 6
6 7 5 4 3 3 2 2 4 4 3 4 4 4 4 2 1 2 2 2 1 4 3 2 6 6 5 6 7 8 9 8 8 9 9 9 9 9 9 9 8 8 8 10 11 13 14 13 13 12 11 12 12 11 12 14 15 14 14 15 15 14 14 15 15 14 13 12 10 7 6 6 6 6 7 6 7 7 6 6 6 6 6 6 6 6
5 4 6 5 4 5 4 5 6 5 5 5 3 5 4 2 2 3 3 3 2 3 4 5 6 5 4 6 7 8 9 7 7 8 8 8 9 9 9 8 8 9 9 10 11 12 14 14 13 12 12 12 12 11 12 15 16 15 15 15 15 15 15 14 15 14 12 10 9 8 6 6 6 6 7 7 7 8 7 7 7 7 6 6 5 6
2 6 6 5 7 8 6 6 7 6 4 3 4 6 5 3 3 3 2 0 4 4 4 6 7 6 5 7 7 6 7 7 8 8 9 10 10 9 9 9 9 9 9 10 11 12 13 14 14 14 13 12 12 12 13 15 16 16 15 16 16 15 15 14 14 14 12 11 10 9 8 8 7 7 8 8 8 9 8 8 8 7 7 6 6 6
1 6 4 7 8 9 8 6 6 6 4 3 4 3 4 3 3 3 2 4 6 5 1 3 7 5 4 6 6 5 6 7 8 9 10 10 10 10 10 10 10 9 9 10 10 11 13 14 15 14 14 13 13 13 14 14 15 15 15 16 16 16 15 15 14 14 14 12 12 11 11 10 9 9 9 10 9 9 9 8 8 8 7 7 6 6
3 5 4 6 8 9 9 7 5 4 7 2 3 2 1 3 3 4 5 5 6 3 2 3 7 5 2 5 4 4 5 7 7 9 10 9 8 10 9 9 9 10 10 10 10 12 13 15 15 15 15 15 15 14 14 13 14 15 15 16 16 16 16 15 15 15 15 14 14 14 12 10 10 9 9 9 9 9 8 8 7 8 8 7 7 7
5 7 6 7 9 9 8 6 5 5 8 1 5 2 3 4 3 4 5 6 5 5 3 4 5 6 6 4 4 3 7 8 8 9 9 9 10 10 9 8 8 9 10 10 11 12 13 15 16 17 17 17 16 15 14 14 15 15 15 15 16 17 16 15 16 16 16 15 16 15 13 11 10 9 8 9 9 8 8 8 8 7 8 8 8 8
6 8 8 9 9 8 7 3 4 7 7 1 5 2 3 2 4 4 5 6 3 4 6 5 3 5 7 4 4 5 8 10 10 10 10 10 9 8 9 8 8 8 9 10 10 12 13 16 17 17 17 17 17 16 16 16 15 15 15 15 15 16 16 16 15 16 17 16 16 15 14 12 12 10 9 9 10 9 9 8 8 8 8 8 9 9
4 2 2 6 8 7 5 1 2 7 5 3 5 4 4 3 4 5 5 4 2 5 7 2 1 5 7 5 4 5 6 8 7 7 7 6 5 3 5 6 5 6 8 9 9 11 14 16 17 17 17 17 17 16 16 16 15 14 15 16 17 17 17 17 16 16 17 17 16 16 15 14 13 13 12 11 11 10 10 10 10 10 9 10 10 11
3 2 1 5 5 2 2 5 1 4 1 4 6 6 5 6 5 4 4 4 4 6 4 2 1 5 6 5 3 1 2 4 4 5 5 4 3 2 1 2 2 4 6 7 8 10 14 15 16 16 17 17 17 16 16 16 15 15 16 17 18 18 18 17 17 17 17 18 17 16 16 16 15 14 13 13 13 12 11 11 11 11 11 10 11 11
7 6 4 4 3 1 3 4 2 2 4 5 6 6 6 5 5 5 5 4 6 4 3 4 2 5 6 4 1 1 1 3 4 6 6 6 6 5 3 2 1 1 4 5 7 8 11 13 15 16 17 17 17 17 17 17 16 16 18 18 18 19 18 17 17 18 18 18 17 16 15 16 15 14 14 14 14 13 13 12 12 11 11 11 11 11
9 10 9 6 4 6 8 6 5 5 6 7 7 6 6 5 4 5 5 4 5 1 5 3 2 5 7 6 4 4 3 3 3 4 6 6 7 7 5 4 2 1 3 4 6 7 9 10 13 16 17 18 18 18 18 18 18 19 19 19 19 19 19 18 17 17 17 17 17 16 15 15 15 14 14 13 13 14 13 13 12 12 12 11 11 11
7 9 11 10 6 8 11 8 6 7 8 9 8 6 6 6 5 6 5 4 5 1 5 4 2 5 7 4 2 2 2 1 1 3 4 4 6 6 6 5 4 3 3 4 6 7 8 9 12 15 16 17 18 19 19 19 19 20 19 20 20 19 19 18 18 17 17 17 17 16 16 15 15 15 14 13 13 14 13 12 12 12 11 11 11 11
7 6 10 11 6 10 14 11 6 4 7 9 8 6 7 6 6 6 5 5 5 1 3 5 3 5 3 2 2 2 2 4 5 5 5 5 6 6 5 5 5 4 3 4 6 7 8 10 12 14 15 16 17 19 20 20 20 20 20 21 21 19 19 18 18 17 17 17 16 16 16 16 16 15 15 14 12 13 12 11 11 11 11 10 10 10
7 4 7 8 4 8 14 11 6 6 6 6 5 7 7 6 6 4 2 3 4 5 3 5 4 4 3 2 3 4 4 5 6 5 6 6 6 5 6 5 4 4 3 2 4 6 8 10 12 13 14 15 16 18 20 20 21 21 21 22 22 20 19 19 19 18 17 17 16 16 17 17 16 15 15 14 13 12 12 11 10 10 10 10 10 10
7 4 9 8 4 6 7 7 7 6 4 4 6 7 2 2 5 3 1 2 2 6 5 4 6 5 4 4 3 2 4 4 4 4 5 4 5 5 5 4 4 3 2 1 2 4 6 9 11 12 13 15 16 18 20 21 22 22 22 22 23 21 20 20 20 19 18 17 16 17 18 17 16 16 15 15 14 14 13 12 12 11 10 10 10 9
7 4 9 10 8 6 2 4 6 4 3 3 5 6 5 1 4 4 4 2 3 7 5 4 8 7 4 2 3 2 4 3 2 3 3 3 4 5 4 3 3 1 1 1 2 3 5 7 9 11 12 14 16 17 19 21 21 21 21 22 22 22 21 21 20 19 18 17 17 18 19 18 18 17 17 16 15 15 14 14 14 13 12 11 10 10
7 6 6 8 7 7 6 6 7 4 5 5 2 3 4 4 5 5 5 5 6 8 6 7 9 7 5 3 1 3 3 3 5 4 4 4 4 3 3 3 3 3 2 2 2 3 5 7 9 10 11 12 14 15 17 18 19 19 20 20 21 21 20 20 20 19 18 18 17 18 19 20 19 18 18 17 16 16 16 15 15 14 14 13 12 12
6 7 4 6 5 7 7 7 7 7 7 4 3 4 5 5 4 4 5 5 7 7 7 8 7 6 6 3 1 4 4 5 6 5 5 6 4 4 3 3 3 1 1 1 1 2 4 6 8 9 10 11 13 14 15 16 17 18 19 19 20 20 19 19 20 20 19 19 18 18 19 20 20 19 18 17 17 17 16 16 15 15 14 13 12 12
6 7 6 4 6 6 8 8 10 9 8 8 8 8 7 4 3 4 5 6 7 8 7 7 7 7 4 1 2 5 5 6 6 6 6 6 5 5 3 3 4 3 3 2 1 2 3 5 7 9 10 11 12 13 14 15 16 17 17 18 19 19 19 20 20 20 20 20 19 19 19 20 21 20 18 17 17 17 16 15 15 14 13 13 12 12
6 7 7 5 6 8 8 6 5 7 6 8 9 9 9 8 6 6 8 7 7 8 8 8 9 7 1 3 2 5 6 7 7 7 7 6 6 6 5 5 5 4 5 4 3 3 3 4 6 8 10 11 12 13 14 15 16 16 17 18 18 19 19 20 20 20 20 20 20 20 20 20 21 20 19 18 18 17 16 16 16 15 14 14 14 13
3 5 8 8 8 6 3 4 2 5 5 7 8 9 10 9 8 9 8 7 6 8 9 9 10 8 3 2 3 5 7 8 7 7 8 8 7 6 6 6 6 5 5 4 4 3 2 4 5 7 9 11 12 13 14 15 15 16 17 17 17 18 19 19 20 20 20 20 20 20 20 20 20 20 20 20 19 19 19 19 19 18 16 16 15 15
2 5 8 9 8 4 4 4 1 1 4 8 9 9 10 10 10 10 8 6 6 8 8 8 9 9 5 5 5 5 7 8 7 7 9 9 8 8 8 8 7 6 5 4 4 3 3 4 5 7 8 10 11 12 14 14 14 15 16 17 17 18 19 19 19 20 20 20 21 21 21 21 22 22 22 22 21 21 21 21 19 18 17 16 16 16
5 7 8 8 9 8 5 6 6 4 5 8 9 10 11 13 13 10 6 6 8 11 12 10 10 7 2 6 6 6 8 10 9 8 9 9 9 9 9 8 8 7 6 5 4 4 5 5 6 7 8 10 11 12 13 14 14 14 15 16 16 17 18 19 19 19 20 21 21 22 22 23 24 24 25 24 23 22 22 21 19 17 16 16 15 15
7 8 8 9 11 10 10 8 6 6 8 8 9 10 11 14 14 9 7 9 10 12 13 11 10 9 4 6 8 7 9 11 10 9 9 9 9 10 9 9 9 9 9 9 7 5 5 6 7 8 9 10 10 11 12 13 13 13 14 15 15 15 16 18 18 19 20 21 22 22 23 25 26 26 26 26 23 22 22 20 19 17 17 17 16 15
7 8 10 13 13 11 11 6 0 2 8 10 11 11 12 13 14 10 9 10 11 11 12 12 13 14 13 11 11 10 10 10 10 11 11 11 11 11 9 10 11 11 11 10 8 7 7 7 8 9 10 11 11 11 11 12 13 13 13 14 14 14 15 17 18 19 20 20 21 22 24 26 27 26 26 25 23 22 22 21 19 18 18 17 17 16
6 9 13 16 16 15 16 10 2 2 9 11 11 12 12 12 12 12 11 12 11 11 12 13 14 15 15 14 14 13 11 11 12 13 13 12 12 12 11 13 14 15 14 12 11 10 10 9 9 9 10 11 11 10 10 11 12 12 13 13 13 14 15 16 17 18 19 20 21 22 24 26 26 25 26 24 21 21 21 21 20 18 17 17 17 17
7 10 12 15 16 15 16 13 8 7 10 11 12 13 13 12 12 13 14 14 14 13 13 14 16 17 15 14 14 13 11 11 13 14 13 12 13 14 15 16 17 18 17 15 13 12 12 12 10 10 10 11 10 10 11 11 12 12 12 12 13 13 14 15 16 17 18 19 20 21 22 23 23 24 25 23 21 21 22 21 21 19 17 17 17 17
6 8 9 11 13 14 15 13 11 11 12 12 14 15 15 15 15 16 15 16 17 17 17 17 19 18 15 14 15 14 13 14 14 13 12 12 14 14 15 16 16 17 17 15 13 12 13 13 13 11 10 10 11 11 12 12 13 13 13 12 13 13 14 15 15 16 17 18 18 19 19 20 20 22 24 23 22 22 23 22 21 21 19 17 17 16
4 4 6 8 9 13 15 13 12 13 14 14 15 16 16 15 15 15 15 14 15 17 17 18 19 16 13 14 15 14 13 12 12 12 12 12 13 13 13 14 15 15 15 14 13 12 12 12 12 11 10 11 12 13 13 13 13 13 13 13 14 14 14 15 15 15 16 16 17 17 17 18 19 20 22 23 22 22 22 21 21 21 20 18 18 16
4 3 4 7 9 10 13 14 14 14 14 16 17 17 18 17 16 14 13 13 14 15 17 18 16 13 10 9 10 9 9 9 10 11 12 12 12 13 14 13 13 14 14 14 13 12 12 11 11 11 11 13 14 14 14 14 14 14 14 15 15 14 14 15 15 16 16 16 16 17 17 17 18 19 20 21 21 21 22 22 21 22 21 20 21 20
6 5 4 6 8 10 13 14 14 13 13 14 15 16 18 18 16 15 14 15 16 15 14 13 11 12 10 7 6 7 8 9 10 11 12 13 13 13 12 12 12 13 13 13 13 13 13 12 11 11 12 13 14 15 16 15 15 14 14 15 15 15 15 15 16 16 16 16 16 17 17 18 18 19 20 21 21 22 23 22 22 23 22 22 25 25
4 6 6 7 7 10 11 9 9 12 13 10 9 12 17 18 18 18 17 17 17 15 13 12 12 13 11 7 6 6 7 8 9 11 12 10 9 9 10 11 12 13 14 14 13 13 13 12 13 14 13 13 14 14 15 15 15 13 13 14 15 16 16 16 16 16 16 16 17 17 18 18 18 19 19 20 20 21 23 23 23 23 22 23 25 25
3 5 5 5 6 7 5 6 8 12 11 9 8 8 12 15 16 17 16 17 17 15 14 14 13 10 7 6 4 5 5 6 9 11 9 6 5 6 9 10 12 14 14 14 14 14 13 13 15 15 13 12 12 12 12 13 13 13 13 14 15 16 16 16 16 16 17 17 17 18 18 18 18 18 18 19 19 20 22 23 23 23 24 24 24 22
3 3 2 3 6 5 5 8 10 7 2 3 5 5 6 9 12 12 13 15 12 9 9 10 8 5 3 3 3 4 5 7 9 8 3 5 6 7 8 10 12 13 13 13 14 14 15 15 16 16 14 11 10 10 11 12 13 13 14 15 15 15 16 16 16 17 17 18 18 18 19 18 18 18 18 18 19 20 21 21 22 23 24 24 22 21
3 2 2 4 6 5 6 9 10 8 5 5 7 6 5 6 7 7 9 9 4 2 4 6 4 2 2 3 4 5 6 8 9 5 2 7 9 9 9 9 11 12 13 13 15 15 16 17 16 15 14 11 9 10 11 11 12 13 13 14 15 15 16 17 17 17 18 18 18 19 19 19 18 18 18 18 19 20 20 20 21 22 23 22 20 20
5 4 3 4 5 5 7 9 10 11 11 7 5 5 4 1 1 3 6 7 5 6 3 3 3 3 4 4 5 6 7 8 9 5 2 9 11 10 10 10 10 13 14 15 17 17 17 16 15 14 14 12 10 10 10 11 13 13 13 14 14 15 15 16 16 17 17 17 17 17 18 18 18 18 18 18 19 20 20 20 20 21 22 21 19 19
10 6 5 5 6 6 8 9 9 9 8 3 6 8 6 2 3 4 7 7 6 7 3 2 3 3 4 4 6 6 6 8 8 4 5 10 11 10 11 11 11 13 15 16 18 19 19 17 14 13 13 12 10 9 10 12 12 12 12 13 13 14 15 15 15 15 15 15 15 14 15 16 17 17 18 18 19 19 19 19 19 19 20 19 19 19
8 6 7 9 10 9 9 8 8 7 4 3 8 8 6 4 5 6 9 5 5 6 2 1 2 3 4 5 6 6 7 8 8 7 9 11 11 10 11 12 12 13 15 16 17 18 20 17 13 11 11 10 8 8 10 11 11 11 10 11 12 12 13 13 13 13 13 13 12 13 14 15 16 17 17 17 18 18 18 18 18 18 19 18 18 18
6 5 7 10 11 12 11 10 8 6 2 7 9 8 7 5 4 8 7 1 5 4 2 2 3 4 5 6 6 7 8 8 8 9 11 11 10 9 10 12 13 13 14 14 15 18 20 18 15 12 10 8 6 6 8 10 10 10 9 10 10 11 11 10 10 10 10 10 11 12 13 14 15 17 17 16 16 16 16 16 17 18 19 18 18 18
6 6 8 9 11 11 11 10 10 7 4 8 8 7 7 6 5 5 2 2 3 3 2 3 4 4 5 7 8 8 9 10 10 10 11 11 10 9 9 11 12 13 13 13 14 16 18 18 18 16 12 9 6 4 6 8 9 9 9 10 10 10 9 9 8 8 8 9 10 12 13 13 14 15 16 16 15 16 16 16 17 18 19 19 18 18
7 7 8 9 10 9 8 9 10 6 4 9 9 7 7 7 4 1 1 3 3 3 3 3 4 4 5 7 8 9 11 11 11 9 9 10 10 9 9 9 10 11 12 13 13 15 15 15 17 18 16 12 8 6 4 6 7 8 8 9 9 9 8 8 8 8 8 9 10 11 12 13 14 15 15 15 16 16 16 16 16 17 18 18 18 18
7 6 7 8 8 8 9 9 7 2 5 10 8 4 5 4 1 1 2 2 2 3 3 3 4 4 5 7 8 10 11 11 10 9 9 9 10 9 9 9 10 11 12 11 11 12 13 12 13 15 16 13 10 8 6 5 6 7 8 9 9 8 8 8 7 7 7 9 10 11 12 13 15 15 15 15 16 16 15 15 16 16 16 17 17 17
5 3 3 4 6 8 8 5 1 4 6 8 5 2 2 3 1 1 3 3 3 3 3 4 4 5 5 6 8 9 10 10 10 9 9 9 10 10 10 10 10 11 11 10 9 9 11 11 11 12 14 13 11 10 7 7 7 7 8 8 8 9 9 8 7 7 8 9 10 11 12 13 14 15 15 15 16 16 16 16 16 15 15 16 17 16
1 2 1 3 5 6 8 7 4 3 5 6 4 3 3 4 3 3 4 5 5 4 4 4 5 6 6 7 8 9 10 10 11 10 10 10 10 10 10 10 10 10 10 10 9 7 8 9 9 10 11 12 12 11 9 7 7 7 7 6 7 9 9 8 8 8 8 8 9 10 11 12 14 15 15 14 14 15 15 16 16 16 15 16 16 17
2 2 2 4 4 4 4 5 6 7 6 6 6 6 6 6 5 4 5 5 5 5 5 5 6 7 8 9 9 10 11 11 11 11 11 10 10 10 10 10 10 10 10 10 9 7 6 8 9 9 9 9 10 11 10 9 7 6 6 4 5 7 8 9 10 9 8 7 7 8 10 11 12 13 13 12 13 13 14 15 16 16 15 16 17 17
4 5 5 6 6 6 5 4 5 6 6 6 6 7 7 8 8 6 6 6 6 7 7 7 7 8 9 9 10 10 11 12 11 11 10 10 10 9 9 10 11 11 11 10 8 6 6 8 9 10 9 8 8 9 10 10 10 8 6 5 5 5 7 9 10 10 8 7 7 7 9 9 10 10 11 11 11 13 14 16 17 16 16 17 18 18
4 4 4 5 6 7 8 9 9 10 10 10 9 9 8 8 8 7 7 7 7 8 9 9 9 9 9 10 11 11 12 12 12 12 11 10 10 9 9 11 11 11 12 11 9 7 7 8 9 9 10 10 9 9 10 10 11 10 8 7 6 6 7 8 9 10 9 8 8 7 8 9 9 10 11 11 11 13 14 16 17 17 17 18 19 19
4 5 4 5 6 7 8 8 8 8 9 8 7 7 7 7 8 9 9 9 9 9 10 10 11 10 11 11 11 11 12 12 11 12 12 10 10 11 11 12 11 11 12 11 10 9 8 9 9 9 10 11 10 10 10 10 9 10 10 9 6 7 9 9 10 11 11 11 10 9 9 9 10 11 12 13 13 14 15 15 17 18 18 17 17 20
6 6 5 6 8 8 8 6 5 6 7 6 6 7 8 8 9 10 11 10 10 11 11 11 12 12 11 11 12 12 12 12 12 13 12 10 11 13 13 12 12 11 11 12 11 10 10 10 10 10 13 13 10 9 10 9 8 8 9 10 8 7 9 10 11 12 12 12 11 11 11 11 10 11 13 14 15 15 15 15 16 19 21 19 18 20
Wind_Direction
237 231 212 219 216 184 140 246 343 17 350 298 275 259 276 273 103 70 39 57 309 270 245 249 256 249 236 217 201 193 193 210 218 216 220 218 213 210 209 209 203 201 198 192 199 207 208 209 209 205 203 201 202 203 205 207 207 205 203 203 207 212 214 214 215 223 224 219 229 232 221 216 213 204 198 193 195 198 202 204 203 204 201 202 207 206
224 234 214 199 108 89 125 171 223 229 237 256 258 256 237 245 111 74 23 42 275 270 269 280 269 254 239 230 212 207 214 221 224 222 223 221 216 211 212 214 207 199 195 188 191 201 208 209 207 204 204 206 207 206 206 208 208 206 206 205 205 207 209 210 210 212 215 216 221 224 221 221 215 206 201 197 198 197 197 198 193 195 197 198 207 208
216 225 177 122 94 115 153 185 209 224 237 246 252 265 252 236 105 146 131 93 196 271 310 324 281 262 234 229 218 217 227 229 229 230 230 226 221 213 211 214 208 199 190 184 188 197 204 204 199 196 200 208 211 209 207 209 210 207 206 209 208 205 207 207 207 207 209 212 213 213 216 216 212 206 201 196 193 190 189 188 183 185 190 194 202 207
214 187 125 120 167 182 178 185 208 223 228 246 263 265 270 21 306 233 125 106 191 260 303 303 280 261 220 219 221 220 228 231 226 228 234 235 230 222 216 214 206 199 189 186 189 192 197 200 194 191 194 199 203 204 203 207 210 210 210 213 211 208 207 205 205 206 205 205 205 207 209 206 205 199 190 189 188 186 184 182 181 183 186 190 195 204
217 81 97 147 191 206 201 190 215 239 221 217 259 277 303 355 305 302 53 85 225 213 260 284 272 255 215 216 221 201 208 223 220 224 232 233 231 229 226 219 209 203 194 191 190 187 192 198 195 193 193 192 197 201 201 204 207 210 212 213 212 209 208 207 205 204 200 199 198 198 200 197 192 187 185 188 189 187 187 186 185 184 185 188 190 199
171 85 129 174 187 209 216 206 215 250 258 211 212 253 326 323 302 306 297 278 253 212 165 309 279 259 190 218 226 181 197 220 214 223 233 228 221 222 223 217 209 207 201 194 193 189 190 197 198 197 194 193 199 203 202 202 204 208 210 210 211 210 209 208 205 203 199 196 195 193 197 196 190 188 189 192 192 188 188 188 186 187 188 191 195 199
129 120 179 193 194 204 220 228 197 229 271 255 139 127 322 282 282 295 292 286 275 269 51 333 285 282 247 232 203 171 228 235 218 227 237 235 226 222 223 217 207 203 197 192 194 193 191 195 198 197 197 198 202 204 202 200 201 206 209 209 211 211 210 208 204 201 199 200 200 198 200 202 196 194 194 194 195 191 191 192 188 190 196 199 204 205
157 161 184 204 210 207 221 231 177 206 264 309 91 122 217 250 272 295 294 276 285 317 296 245 258 279 277 258 147 172 255 251 235 237 238 240 236 229 230 222 210 201 193 191 193 192 191 193 195 195 197 201 204 202 197 197 200 202 207 210 210 211 210 208 204 201 201 204 206 202 201 203 200 196 196 195 196 195 195 196 194 198 203 206 211 213
168 187 188 199 212 216 229 234 155 205 255 66 97 186 215 251 278 277 281 272 282 307 269 219 200 263 271 256 172 198 258 259 248 247 245 247 244 235 237 234 219 201 194 195 190 188 190 191 194 194 195 201 204 201 195 196 197 199 204 209 209 210 209 209 207 204 205 208 209 205 199 200 200 196 197 199 201 200 197 198 199 204 209 210 213 214
132 185 219 218 222 226 219 122 149 223 249 97 134 190 197 220 252 249 266 280 261 264 267 214 176 274 282 277 227 204 254 268 264 262 260 267 275 261 257 256 233 194 190 197 188 185 188 190 192 192 193 198 201 200 197 194 192 195 202 206 206 207 209 210 208 206 208 209 210 208 200 199 199 194 196 199 200 200 199 200 201 204 209 210 211 214
128 99 332 243 244 269 127 96 83 243 230 128 173 201 208 213 226 240 256 275 264 250 240 124 230 274 280 282 264 183 326 317 303 294 297 305 312 318 307 284 246 182 182 193 187 183 185 187 189 189 191 195 196 196 196 192 190 194 200 202 203 205 207 210 208 206 209 209 211 211 206 204 202 195 194 194 195 195 197 202 203 203 205 206 209 210
196 197 210 211 235 269 167 150 137 181 184 196 214 223 228 217 209 228 222 217 252 248 135 121 208 252 261 260 266 7 336 302 289 292 301 306 312 322 330 327 331 166 177 183 184 181 181 183 186 188 190 191 191 192 192 191 190 195 199 199 200 203 206 208 207 205 207 209 211 212 211 210 208 204 200 197 196 196 198 204 205 204 201 201 204 206
209 217 208 185 187 214 221 208 174 177 198 216 227 229 239 235 215 233 226 213 253 249 111 131 204 241 260 262 277 306 304 293 293 286 291 302 312 319 321 318 311 226 192 184 183 181 182 186 187 189 190 189 189 191 191 189 190 195 198 198 199 201 204 206 206 205 206 208 209 210 211 209 207 208 206 202 200 198 199 202 202 202 201 201 203 207
200 206 203 199 191 202 223 225 193 189 199 213 223 221 233 245 237 242 247 247 259 207 125 149 217 257 259 249 230 299 328 320 235 243 266 282 285 297 309 306 293 260 212 189 191 188 185 191 191 191 191 189 189 190 188 187 190 195 197 199 200 201 202 203 204 206 206 207 207 207 207 205 202 203 203 203 202 199 198 199 200 201 202 204 205 208
209 202 193 198 183 181 207 230 245 227 203 209 226 235 238 249 252 251 256 257 259 269 150 162 200 260 267 85 136 224 265 250 239 233 242 252 253 264 274 276 280 273 238 197 194 194 190 191 193 192 192 192 190 188 187 186 190 195 197 199 201 202 202 201 202 206 207 207 207 205 205 203 200 199 198 201 202 200 198 198 200 202 205 209 210 211
235 244 162 161 142 178 204 220 244 258 223 195 212 238 244 255 259 261 321 330 312 303 254 197 227 269 296 312 246 253 268 255 248 227 221 233 226 228 248 249 254 268 267 227 195 191 192 191 192 193 193 194 191 189 188 188 191 195 197 199 201 202 202 199 200 205 207 207 207 205 205 203 199 198 198 198 199 200 199 198 199 203 210 211 211 210
234 229 143 147 164 186 214 211 201 240 235 168 201 223 219 301 274 253 185 43 315 274 260 229 250 262 262 256 216 236 274 256 245 222 213 231 217 216 236 234 233 250 269 266 204 182 189 191 192 194 194 195 193 192 192 193 195 197 198 198 199 201 200 198 198 201 204 205 205 206 205 203 200 198 198 197 196 196 195 196 197 201 206 207 208 208
232 223 157 176 193 167 195 209 185 227 250 202 216 192 130 102 261 250 244 218 228 251 250 240 261 270 259 233 155 202 268 280 281 264 251 254 228 217 225 219 218 205 179 228 209 182 188 194 196 196 197 197 196 194 194 195 198 201 202 200 200 200 199 197 195 198 203 203 204 205 205 203 201 199 199 198 195 194 193 195 197 199 200 201 204 207
222 238 171 174 185 147 155 201 189 186 226 257 289 155 164 232 221 207 231 241 245 254 254 250 261 270 259 246 235 263 283 304 298 293 290 282 264 249 244 230 210 170 164 196 198 189 189 196 199 198 199 199 197 197 197 196 199 203 205 205 204 204 202 199 196 199 202 202 203 205 204 203 202 200 199 198 195 195 195 196 196 197 197 198 201 205
201 235 207 160 160 154 166 209 212 187 189 229 255 200 217 262 250 222 223 237 255 261 261 259 258 261 258 238 261 286 291 293 294 294 293 295 292 281 273 265 258 228 226 255 212 201 193 195 198 195 196 197 194 195 196 195 198 202 203 205 206 207 206 204 200 199 201 203 204 205 204 203 202 202 201 199 197 197 198 197 196 196 196 198 201 205
190 224 233 160 144 179 196 208 219 214 193 196 215 217 213 219 247 264 243 237 258 264 262 262 253 257 270 163 216 282 291 283 282 282 284 291 292 292 295 286 290 301 298 291 257 228 205 195 193 188 191 194 191 191 192 193 195 199 201 203 205 206 206 206 203 201 202 203 205 206 205 204 203 203 202 201 200 200 200 199 197 197 198 200 205 207
196 209 224 197 176 208 214 196 226 256 237 214 217 218 218 219 226 246 242 232 242 257 262 266 260 260 266 118 220 281 289 281 279 277 280 287 289 292 294 287 289 294 294 297 280 251 217 194 190 184 185 188 188 189 192 194 194 197 200 202 204 205 206 206 204 203 202 202 204 206 206 206 204 204 204 203 201 201 202 200 197 198 199 201 205 206
201 212 221 224 216 208 158 101 26 323 290 256 243 233 232 232 230 240 248 239 229 240 254 261 264 265 242 194 251 274 280 288 290 279 274 278 284 286 284 284 282 277 283 289 281 271 243 208 195 189 189 190 190 192 193 194 195 198 199 200 203 205 207 207 206 205 203 201 202 203 204 205 204 203 205 204 202 201 201 200 197 197 197 199 201 202
164 217 218 230 231 198 118 110 122 332 271 248 239 239 242 238 238 247 259 264 249 243 250 255 258 261 237 208 238 263 276 285 281 266 264 269 275 276 273 276 278 274 274 272 265 257 242 223 212 208 203 198 196 194 194 196 196 196 196 199 202 205 207 207 206 205 203 202 202 200 201 203 203 204 204 204 204 203 201 200 198 197 197 199 200 199
188 214 211 226 232 217 202 206 202 196 218 234 233 227 230 237 243 250 259 267 260 254 258 262 262 267 207 166 207 254 274 278 273 263 263 262 262 269 271 275 280 284 284 278 267 252 243 235 230 226 217 210 205 198 194 196 196 194 194 196 200 203 205 205 205 203 202 201 200 198 199 201 202 203 203 203 203 202 201 200 198 197 198 201 201 198
198 217 208 220 229 224 224 225 223 218 210 218 231 220 217 229 233 236 249 251 250 252 255 258 263 274 254 190 210 249 266 271 273 274 273 264 256 260 269 279 286 290 290 289 286 272 255 246 244 239 228 220 213 203 196 193 192 191 191 195 198 201 202 203 203 202 202 202 201 200 200 201 202 202 202 203 202 201 200 200 198 196 196 198 198 195
211 227 219 230 238 238 238 231 103 266 223 208 213 213 212 224 226 229 245 246 250 259 256 253 261 272 272 258 257 269 270 272 278 280 279 273 263 259 261 274 284 285 284 285 285 277 263 254 251 245 235 227 218 208 198 188 185 187 190 193 197 198 199 201 202 202 203 205 206 205 204 204 205 204 204 205 205 202 200 199 199 198 198 197 194 191
221 226 220 230 241 248 253 248 186 250 242 226 222 220 214 215 219 225 236 242 252 263 261 260 265 272 276 276 278 280 280 282 287 286 284 285 285 283 281 283 285 283 281 279 276 274 269 263 258 247 237 229 218 207 197 189 185 185 189 191 193 196 198 198 201 204 206 209 210 209 208 209 210 209 208 208 207 204 201 198 198 198 198 197 195 193
229 228 220 227 236 242 250 251 239 240 247 242 238 237 229 223 223 226 235 242 247 255 261 268 273 274 276 279 281 285 286 287 289 290 292 296 295 290 287 287 285 283 282 279 275 275 272 267 264 253 238 226 215 205 199 194 187 183 187 190 191 195 196 196 201 204 206 209 210 211 211 211 214 214 211 210 210 206 201 198 197 196 196 197 197 197
240 232 218 223 236 240 237 239 235 233 240 240 237 238 238 235 234 235 241 245 249 256 263 270 275 274 274 278 281 284 283 284 287 289 292 294 292 289 288 286 284 283 283 283 283 282 278 272 266 258 241 223 214 210 206 201 191 185 188 189 189 192 194 197 202 204 206 209 210 211 211 210 213 215 212 211 213 209 203 201 199 195 196 198 198 199
235 218 190 207 237 242 234 232 229 227 233 237 234 234 234 234 236 238 243 247 251 258 262 267 271 271 270 276 278 278 279 284 290 291 292 294 296 295 293 289 287 287 286 286 285 283 279 273 265 256 242 227 220 216 211 206 196 189 189 187 188 191 192 195 201 204 206 208 207 208 210 209 211 215 213 212 215 213 207 202 194 188 191 197 198 201
208 202 174 206 235 241 233 231 229 227 234 239 236 233 232 233 235 237 239 240 245 254 260 262 265 268 274 288 290 286 289 293 294 296 298 299 301 301 299 300 301 299 297 295 294 291 287 279 270 259 247 238 230 220 213 206 198 193 189 186 184 185 188 193 200 204 207 208 206 206 208 209 211 214 214 212 215 214 207 199 190 185 189 196 200 204
206 205 189 208 230 243 237 232 234 235 236 239 237 233 233 235 238 238 239 241 241 248 258 259 262 271 282 303 313 304 302 302 299 299 299 298 300 306 312 317 316 314 314 313 310 305 298 289 281 271 260 252 241 228 219 212 206 199 191 184 180 179 185 193 199 203 206 206 205 205 206 208 211 215 216 215 216 214 206 198 194 192 193 198 202 206
221 214 212 213 228 244 238 230 238 240 237 241 238 229 230 233 237 240 244 246 245 245 251 256 264 275 287 306 321 318 312 306 299 294 294 301 313 321 326 325 323 323 323 319 315 311 304 297 288 278 270 267 259 243 227 216 208 198 189 182 179 179 186 193 198 202 205 205 205 205 205 207 211 214 216 215 214 211 205 201 199 197 197 199 201 203
254 226 221 217 225 242 231 207 227 238 244 258 255 229 227 234 239 246 250 250 249 250 253 260 267 279 300 322 332 327 314 301 291 284 290 329 3 348 336 333 332 330 326 321 317 311 306 300 289 278 270 270 269 254 230 212 200 190 186 184 182 183 187 193 198 202 204 206 207 206 205 207 209 211 211 210 208 205 204 203 203 202 201 200 200 201
251 233 212 209 218 227 207 203 225 243 240 236 230 212 222 235 233 240 250 250 250 256 262 266 271 287 323 327 324 327 315 302 290 275 283 39 26 359 349 345 341 334 326 322 318 308 303 299 288 278 272 268 262 247 228 211 198 191 189 186 186 188 190 194 200 203 204 206 206 205 205 205 205 205 205 204 202 202 203 204 205 205 204 203 201 203
248 252 212 218 222 222 216 217 235 252 233 199 198 193 205 234 227 228 246 244 216 187 251 257 254 277 318 318 327 332 317 296 279 246 111 39 12 359 352 346 345 340 332 329 325 315 309 302 288 277 271 264 252 241 229 212 199 194 190 188 190 193 194 197 203 204 204 205 205 204 204 203 202 201 200 200 201 202 203 204 205 206 206 205 203 204
217 230 216 220 219 212 227 236 243 252 250 234 195 148 120 39 223 209 250 243 178 154 193 233 237 265 287 298 320 326 310 290 272 237 62 15 357 350 341 337 345 347 345 345 343 338 330 316 295 280 271 261 252 242 227 211 200 193 190 191 193 195 198 203 208 208 207 208 206 205 203 203 202 200 198 199 202 203 204 204 205 205 205 207 207 207
198 206 209 226 229 213 226 241 241 248 258 216 127 111 102 116 156 183 245 247 177 148 148 215 242 278 294 302 317 315 298 286 275 274 10 358 343 339 337 335 340 345 352 359 358 352 344 330 309 291 279 266 255 239 220 211 202 194 191 190 190 195 200 206 212 214 214 214 212 208 205 204 204 202 201 202 203 204 204 203 203 204 204 207 209 208
185 193 201 220 232 226 229 240 243 254 261 154 135 128 125 130 149 202 246 249 145 139 148 248 261 294 299 301 308 296 284 285 287 311 341 335 326 334 338 334 333 337 349 1 5 2 355 345 330 308 291 277 261 235 215 208 202 196 191 185 187 196 203 209 215 218 221 221 218 214 210 207 206 204 203 204 204 204 203 201 200 200 199 203 206 204
179 190 201 217 229 228 229 237 246 252 193 147 151 148 140 142 186 230 251 207 130 165 210 252 284 301 295 291 291 282 285 294 297 307 316 314 317 329 333 330 329 330 342 355 3 5 2 359 354 339 320 307 288 241 212 205 199 191 184 181 187 196 200 204 209 211 216 219 218 217 214 210 208 206 205 206 205 203 201 198 195 194 194 197 199 197
188 194 205 217 226 227 229 237 243 246 181 146 150 151 164 196 235 250 239 126 166 221 231 240 275 294 289 283 281 278 287 294 293 297 302 306 312 318 324 332 331 331 340 347 357 7 7 2 1 357 350 346 329 271 216 203 195 184 180 183 189 193 191 192 197 202 211 217 218 219 218 214 210 206 204 205 202 199 198 194 189 188 190 193 196 196
193 197 209 213 217 222 227 228 235 242 167 151 155 161 188 218 261 327 171 186 211 242 242 237 256 275 281 283 281 280 284 286 288 293 296 300 307 310 318 330 331 334 339 339 349 5 6 3 4 359 353 351 340 311 254 215 199 184 184 191 190 185 182 186 196 206 216 224 227 226 222 216 210 203 200 199 195 193 193 190 187 185 187 191 195 197
189 196 217 214 206 210 218 222 230 231 150 168 181 199 212 226 310 6 252 241 220 222 243 255 259 270 284 288 285 284 286 284 286 292 294 297 304 309 315 324 327 334 339 336 345 1 0 1 8 2 355 355 348 332 307 264 231 204 199 199 189 181 183 188 197 209 221 230 234 231 225 219 212 205 199 193 189 191 193 190 188 188 189 192 195 200
190 184 231 222 207 219 236 237 164 96 139 174 197 253 235 223 213 202 248 267 257 250 269 277 276 282 291 292 289 287 287 286 288 292 294 296 301 306 312 316 318 326 334 332 339 355 355 353 359 360 359 360 357 348 333 304 277 246 226 211 191 185 188 191 197 208 222 233 235 231 227 223 218 212 203 192 189 192 194 191 189 190 191 194 198 203
148 73 314 238 219 235 257 257 233 203 195 197 216 253 248 249 252 235 242 256 262 271 277 275 284 293 293 293 293 289 287 290 291 289 290 291 294 300 305 308 311 319 325 324 327 341 346 342 344 353 359 1 358 354 344 323 298 276 261 240 211 201 196 193 198 206 216 230 236 232 229 227 224 216 205 194 191 194 195 194 193 193 194 196 200 204
162 171 222 236 227 225 237 239 241 242 228 222 241 247 237 243 252 245 244 252 262 272 276 279 286 290 287 287 288 286 289 293 291 288 288 288 289 294 299 302 307 312 313 314 318 324 326 325 328 335 346 355 355 350 345 337 321 301 289 275 242 223 207 198 200 204 211 222 229 229 228 226 222 214 203 195 195 200 201 199 198 198 199 201 204 204
172 189 207 226 232 233 232 236 251 253 240 238 252 247 235 244 251 245 246 257 266 271 275 277 278 280 283 283 283 285 288 289 288 288 288 287 288 291 293 294 299 303 304 305 306 304 310 318 317 316 321 328 332 335 339 342 342 333 314 289 265 247 227 212 208 209 212 215 218 224 226 220 212 207 204 200 200 204 206 204 204 206 207 207 206 205
123 167 201 225 236 247 254 253 257 259 255 248 246 242 241 249 255 259 262 265 267 270 275 276 275 278 283 283 284 284 282 281 284 285 284 284 286 286 286 289 290 291 293 297 296 290 292 296 295 297 305 311 314 319 326 334 344 345 329 301 272 252 243 234 226 224 219 212 211 219 222 218 212 209 209 207 205 209 212 213 215 217 215 214 212 210
152 187 205 225 236 243 249 248 253 260 261 255 252 256 259 261 267 273 273 270 271 275 278 280 281 282 281 280 280 279 277 278 281 281 281 281 281 282 284 284 283 281 282 287 290 289 284 278 272 278 290 297 299 305 311 319 336 344 336 318 289 257 246 242 238 236 230 220 216 216 214 215 216 215 217 218 217 219 221 220 220 220 216 214 215 215
201 212 216 231 243 250 257 262 270 273 273 276 280 279 276 276 276 275 274 275 278 279 280 282 284 285 283 279 278 277 277 276 276 277 279 279 279 282 282 280 280 281 280 281 283 282 281 278 273 276 284 285 281 285 295 304 319 333 334 327 307 274 253 245 241 240 237 231 224 214 209 214 218 215 218 223 222 223 223 220 219 221 220 217 218 221